Tracking 31027 objects as of 19-Jul-2025
HD Live streaming from Space Station
objects crossing your sky now

DELTA 1 DEB

Track DELTA 1 DEB now!
10-day predictions


NORAD ID: 10842
Int'l Code: 1976-077CN
Perigee: 1,210.6 km
Apogee: 1,658.6 km
Inclination: 102.2 °
Period: 114.4 minutes
Semi major axis: 7805 km
RCS: 0.1889 m2 (medium)
Launch date: July 29, 1976
Source: United States (US)
Launch site: AIR FORCE WESTERN TEST RANGE (AFWTR)

Note: This is SATELLITE DEBRIS
Your satellite tracking list
OBJECT A
Track 1 satellite(s)




NASA's NSSDC Master Catalog

Two Line Element Set (TLE):
1 10842U 76077CN  25199.64010626 -.00000142  00000-0 -46207-3 0  9994
2 10842 102.1601 341.7046 0286951 327.3937  41.4128 12.58900637112698
Source of the keplerian elements: AFSPC